• In Czech Republic
  • List of Countries
  • For 7 days
  • Water Temperature
  • Satellite Maps
  • Weather Map
  • Weather Widgets
  • user-avatar
    Login

    Hourly Weather Abovyan

    Today, 18 October, Wednesday

    Time Temperature Precipitation Wind Pressure Humidity
    00:00 +7°C° 0 mm 2 mps 674 mmHg 69%
    01:00 +7°C° 0 mm 2 mps 674 mmHg 70%
    02:00 +8°C° 0 mm 1 mps 674 mmHg 71%
    03:00 +7°C° 0 mm 1 mps 674 mmHg 73%
    04:00 +7°C° 0 mm 1 mps 674 mmHg 74%
    05:00 +7°C° 0 mm 1 mps 673 mmHg 75%
    06:00 +7°C° 0 mm 1 mps 673 mmHg 75%
    07:00 +9°C° 0 mm 1 mps 674 mmHg 67%
    08:00 +11°C° 0 mm 1 mps 674 mmHg 59%
    09:00 +13°C° 0 mm 1 mps 675 mmHg 51%
    10:00 +14°C° 0 mm 1 mps 675 mmHg 47%
    11:00 +16°C° 0 mm 1 mps 675 mmHg 44%
    12:00 +18°C° 0 mm 1 mps 675 mmHg 40%
    13:00 +18°C° 0 mm 1 mps 674 mmHg 39%
    14:00 +18°C° 0 mm 2 mps 674 mmHg 37%
    15:00 +18°C° 0 mm 2 mps 674 mmHg 36%
    16:00 +16°C° 0 mm 1 mps 674 mmHg 42%
    17:00 +14°C° 0 mm 1 mps 674 mmHg 47%
    18:00 +12°C° 0 mm 1 mps 674 mmHg 53%
    19:00 +12°C° 0 mm 1 mps 674 mmHg 56%
    20:00 +11°C° 0 mm 1 mps 674 mmHg 59%
    21:00 +11°C° 0 mm 1 mps 674 mmHg 62%
    22:00 +11°C° 0 mm 1 mps 674 mmHg 65%
    23:00 +10°C° 0 mm 1 mps 675 mmHg 67%

    Tomorrow, 19 October, Thursday

    Time Temperature Precipitation Wind Pressure Humidity
    00:00 +10°C° 0 mm 1 mps 675 mmHg 70%
    01:00 +10°C° 0 mm 1 mps 675 mmHg 72%
    02:00 +9°C° 0 mm 1 mps 675 mmHg 74%
    03:00 +9°C° 0 mm 1 mps 674 mmHg 76%
    04:00 +9°C° 0 mm 1 mps 674 mmHg 77%
    05:00 +9°C° 0 mm 1 mps 674 mmHg 79%
    06:00 +8°C° 0 mm 1 mps 674 mmHg 80%
    07:00 +10°C° 0 mm 1 mps 675 mmHg 70%
    08:00 +12°C° 0 mm 1 mps 675 mmHg 60%
    09:00 +14°C° 0 mm 1 mps 676 mmHg 49%
    10:00 +15°C° 0 mm 1 mps 675 mmHg 44%
    11:00 +18°C° 0 mm 1 mps 675 mmHg 39%
    12:00 +18°C° 0 mm 2 mps 675 mmHg 33%
    13:00 +18°C° 0 mm 2 mps 674 mmHg 32%
    14:00 +18°C° 0 mm 2 mps 674 mmHg 31%
    15:00 +18°C° 0 mm 2 mps 674 mmHg 30%
    16:00 +16°C° 0 mm 1 mps 673 mmHg 35%
    17:00 +15°C° 0 mm 1 mps 673 mmHg 39%
    18:00 +12°C° 0 mm 0 mps 673 mmHg 43%
    19:00 +11°C° 0 mm 0 mps 673 mmHg 44%
    20:00 +11°C° 0 mm 0 mps 673 mmHg 45%
    21:00 +11°C° 0 mm 0 mps 673 mmHg 45%
    22:00 +10°C° 0 mm 0 mps 673 mmHg 45%
    23:00 +10°C° 0 mm 0 mps 673 mmHg 44%

    Day after tomorrow, 20 October, Friday

    Time Temperature Precipitation Wind Pressure Humidity
    00:00 +10°C° 0 mm 0 mps 672 mmHg 44%
    01:00 +10°C° 0 mm 1 mps 672 mmHg 43%
    02:00 +10°C° 0 mm 1 mps 672 mmHg 43%
    03:00 +10°C° 0 mm 1 mps 672 mmHg 42%
    04:00 +9°C° 0 mm 1 mps 672 mmHg 43%
    05:00 +9°C° 0 mm 1 mps 671 mmHg 44%
    06:00 +9°C° 0 mm 1 mps 671 mmHg 45%
    07:00 +11°C° 0 mm 1 mps 672 mmHg 41%
    08:00 +13°C° 0 mm 1 mps 672 mmHg 38%
    09:00 +15°C° 0 mm 1 mps 673 mmHg 34%
    10:00 +16°C° 0 mm 1 mps 673 mmHg 32%
    11:00 +18°C° 0 mm 1 mps 673 mmHg 30%
    12:00 +18°C° 0 mm 2 mps 672 mmHg 28%
    13:00 +20°C° 0 mm 1 mps 672 mmHg 28%
    14:00 +20°C° 0 mm 1 mps 672 mmHg 28%
    15:00 +20°C° 0 mm 1 mps 672 mmHg 27%
    16:00 +18°C° 0 mm 1 mps 672 mmHg 31%
    17:00 +16°C° 0 mm 1 mps 671 mmHg 35%
    18:00 +14°C° 0 mm 1 mps 671 mmHg 39%
    19:00 +13°C° 0 mm 1 mps 671 mmHg 40%
    20:00 +13°C° 0 mm 1 mps 672 mmHg 41%
    21:00 +12°C° 0 mm 1 mps 672 mmHg 42%
    22:00 +12°C° 0 mm 1 mps 672 mmHg 43%
    23:00 +12°C° 0 mm 1 mps 672 mmHg 44%

    21 October, Saturday

    Time Temperature Precipitation Wind Pressure Humidity
    00:00 +11°C° 0 mm 1 mps 672 mmHg 45%
    01:00 +11°C° 0 mm 1 mps 671 mmHg 45%
    02:00 +11°C° 0 mm 1 mps 671 mmHg 46%
    03:00 +10°C° 0 mm 1 mps 671 mmHg 46%
    04:00 +10°C° 0 mm 1 mps 671 mmHg 47%
    05:00 +10°C° 0 mm 1 mps 671 mmHg 48%
    06:00 +10°C° 0 mm 1 mps 671 mmHg 48%
    07:00 +12°C° 0 mm 1 mps 671 mmHg 44%
    08:00 +14°C° 0 mm 1 mps 672 mmHg 39%
    09:00 +16°C° 0 mm 1 mps 673 mmHg 34%
    10:00 +18°C° 0 mm 1 mps 672 mmHg 32%
    11:00 +19°C° 0 mm 1 mps 672 mmHg 30%
    12:00 +19°C° 0 mm 2 mps 672 mmHg 28%
    13:00 +19°C° 0 mm 2 mps 672 mmHg 28%
    14:00 +19°C° 0 mm 2 mps 671 mmHg 28%
    15:00 +19°C° 0 mm 2 mps 671 mmHg 27%
    16:00 +17°C° 0 mm 2 mps 671 mmHg 31%
    17:00 +16°C° 0 mm 1 mps 671 mmHg 35%
    18:00 +14°C° 0 mm 1 mps 670 mmHg 39%
    19:00 +13°C° 0 mm 1 mps 670 mmHg 40%
    20:00 +13°C° 0 mm 1 mps 671 mmHg 41%
    21:00 +13°C° 0 mm 1 mps 671 mmHg 42%
    22:00 +12°C° 0 mm 1 mps 671 mmHg 43%
    23:00 +12°C° 0 mm 1 mps 670 mmHg 44%

    22 October, Sunday

    Time Temperature Precipitation Wind Pressure Humidity
    00:00 +11°C° 0 mm 1 mps 670 mmHg 44%
    01:00 +11°C° 0 mm 1 mps 670 mmHg 44%
    02:00 +11°C° 0 mm 1 mps 670 mmHg 44%
    03:00 +10°C° 0 mm 1 mps 670 mmHg 44%
    04:00 +10°C° 0 mm 1 mps 670 mmHg 44%
    05:00 +10°C° 0 mm 1 mps 670 mmHg 44%
    06:00 +9°C° 0 mm 1 mps 670 mmHg 43%
    07:00 +11°C° 0 mm 1 mps 670 mmHg 39%
    08:00 +13°C° 0 mm 1 mps 671 mmHg 35%
    09:00 +15°C° 0 mm 1 mps 671 mmHg 31%
    10:00 +16°C° 0 mm 2 mps 671 mmHg 29%
    11:00 +17°C° 0 mm 2 mps 671 mmHg 28%
    12:00 +18°C° 0 mm 2 mps 671 mmHg 26%
    13:00 +18°C° 0 mm 2 mps 670 mmHg 26%
    14:00 +18°C° 0 mm 2 mps 670 mmHg 26%
    15:00 +19°C° 0 mm 2 mps 669 mmHg 25%
    16:00 +17°C° 0 mm 2 mps 669 mmHg 29%
    17:00 +15°C° 0 mm 2 mps 669 mmHg 32%
    18:00 +14°C° 0 mm 1 mps 669 mmHg 35%
    19:00 +13°C° 0 mm 1 mps 669 mmHg 38%
    20:00 +13°C° 0 mm 1 mps 670 mmHg 40%
    21:00 +13°C° 0 mm 1 mps 670 mmHg 42%
    22:00 +13°C° 0 mm 1 mps 670 mmHg 45%
    23:00 +12°C° 0 mm 1 mps 670 mmHg 47%

    23 October, Monday

    Time Temperature Precipitation Wind Pressure Humidity
    00:00 +12°C° 0 mm 2 mps 670 mmHg 50%
    01:00 +12°C° 0 mm 1 mps 670 mmHg 53%
    02:00 +11°C° 0 mm 1 mps 670 mmHg 56%
    03:00 +11°C° 0 mm 1 mps 670 mmHg 59%
    04:00 +11°C° 0 mm 1 mps 671 mmHg 61%
    05:00 +10°C° 0 mm 1 mps 671 mmHg 64%
    06:00 +10°C° 0 mm 1 mps 671 mmHg 66%
    07:00 +11°C° 0 mm 1 mps 672 mmHg 59%
    08:00 +13°C° 0 mm 1 mps 672 mmHg 51%
    09:00 +14°C° 0 mm 1 mps 673 mmHg 44%
    10:00 +15°C° 0 mm 1 mps 673 mmHg 40%
    11:00 +16°C° 0 mm 2 mps 673 mmHg 35%
    12:00 +18°C° 0 mm 2 mps 673 mmHg 31%
    13:00 +18°C° 0 mm 2 mps 673 mmHg 30%
    14:00 +18°C° 0 mm 2 mps 672 mmHg 30%
    15:00 +18°C° 0 mm 2 mps 672 mmHg 30%
    16:00 +16°C° 0 mm 2 mps 672 mmHg 36%
    17:00 +15°C° 0 mm 2 mps 672 mmHg 42%
    18:00 +13°C° 0 mm 1 mps 673 mmHg 47%
    19:00 +13°C° 0 mm 2 mps 673 mmHg 52%
    20:00 +12°C° 0 mm 2 mps 673 mmHg 57%
    21:00 +12°C° 0 mm 2 mps 673 mmHg 61%
    22:00 +10°C° 0 mm 2 mps 673 mmHg 64%
    23:00 +10°C° 0 mm 2 mps 674 mmHg 67%
    Show more